Location: Unspecified
(0.0000°N, 0.0000°E)
Time: 14:45:09
(UTC+00:00)

AAUSAT3 - Pass Details

Date: 12 August 2024
Orbit: 756 x 773 km, 98.4° (Epoch: 17 September)

Event Time Altitude Azimuth Distance (km) Brightness Sun altitude
Rises 05:04:27 0° 135° (SE) 3,231 ? -14.6°
Reaches altitude 10° 05:07:44 10° 112° (ESE) 2,298 ? -13.8°
Maximum altitude 05:10:34 15° 78° (ENE) 1,957 ? -13.2°
Drops below altitude 10° 05:13:24 10° 43° (NE) 2,286 ? -12.5°
Sets 05:16:38 0° 21° (NNE) 3,204 ? -11.7°
